Regional Weather Roundup
Issued by NWS

Home | Current Version | Previous Version | Text Only | Print | Product List | Glossary On
Versions: 1 2 3 4 5 6 7 8 9 10 11 12 13 14 15 16 17 18 19 20 21 22 23 24 25 26 27 28 29 30 31 32 33 34 35 36 37 38 39 40 41 42 43 44 45 46 47 48 49 50
000
ASUS44 KEWX 260611
RWRTX
SOUTH TEXAS REGIONAL WEATHER ROUNDUP
NATIONAL WEATHER SERVICE AUSTIN/SAN ANTONIO TX
100 AM CDT SUN APR 26 2015

NOTE: "FAIR" INDICATED FEW OR NO CLOUDS BELOW 12,000 FEET WITH NO
SIGNIFICANT WEATHER AND/OR OBSTRUCTIONS TO VISIBILITY.

* - THESE STATIONS ARE NOT NWS OR FAA STATIONS...AND ARE NOT SUBJECT
    TO NWS AND FAA QUALITY CONTROL.

TXZ171-172-183>190-260700-
TEXAS HILL COUNTRY AND EDWARDS PLATEAU

CITY           SKY/WX    TMP DP  RH WIND       PRES   REMARKS
JUNCTION       CLEAR     55  41  59 CALM      29.75S
6HR MIN TEMP:  55; 6HR MAX TEMP:  87;

*LLANO         CLEAR     57  52  82 SE5       29.75S
BURNET         CLEAR     67  57  70 CALM      29.75F
6HR MIN TEMP:  65; 6HR MAX TEMP:  87;

*HORSESHOE BAY CLEAR     73  59  62 S7        29.72S
6HR MIN TEMP:  68; 6HR MAX TEMP:  89;

*KERRVILLE     CLEAR     60  58  92 CALM      29.77S
6HR MIN TEMP:  60; 6HR MAX TEMP:  85;

*FREDERICKSBRG CLEAR     57  54  90 CALM      29.76S
6HR MIN TEMP:  57; 6HR MAX TEMP:  83;

*ROCKSPRINGS   CLEAR     64  52  63 SE6       29.81S
*BOERNE STAGE  CLOUDY    70  64  83 S6        29.77F
*CASTROVILLE   CLOUDY    73  73  98 S6        29.76S FOG
HONDO          CLOUDY    71  68  90 SE6         N/A
6HR MIN TEMP:  66; 6HR MAX TEMP:  83;

*UVALDE        CLEAR     69  65  86 SE5       29.74S
6HR MIN TEMP:  69; 6HR MAX TEMP:  85;

DEL RIO        CLEAR     73  59  61 SE6       29.70F
6HR MIN TEMP:  72; 6HR MAX TEMP:  88;

LAUGHLIN AFB   CLEAR     68  64  86 E3        29.71F
6HR MIN TEMP:  68; 6HR MAX TEMP:  88;

CARRIZO SPRGS  PTCLDY    70  68  94 SE3       29.70F
$$

TXZ173-191>194-202-209-217>225-228-260700-
CENTRAL AND SOUTH CENTRAL TEXAS

CITY           SKY/WX    TMP DP  RH WIND       PRES   REMARKS
GEORGETOWN     CLEAR     64  57  77 CALM      29.72F
6HR MIN TEMP:  64; 6HR MAX TEMP:  88;

AUSTIN/BERGSTM PTCLDY    70  68  93 S5        29.72S
6HR MIN TEMP:  70; 6HR MAX TEMP:  85;

AUSTIN/MABRY   PTCLDY    72  67  84 S5        29.73S
6HR MIN TEMP:  71; 6HR MAX TEMP:  88;

*AUSTIN/EXEC   CLEAR     68  66  94 S7        29.73S
*LAGO VISTA    CLEAR     73  62  68 S6        29.74F
6HR MIN TEMP:  73; 6HR MAX TEMP:  89;

SAN MARCOS     CLOUDY    72  66  83 S8        29.74S
6HR MIN TEMP:  70; 6HR MAX TEMP:  84;

NEW BRAUNFELS  CLOUDY    73  71  93 S9        29.72S FOG
6HR MIN TEMP:  70; 6HR MAX TEMP:  85;

RANDOLPH AFB   CLOUDY    73  72  99 S10       29.74S
6HR MIN TEMP:  71; 6HR MAX TEMP:  83;

PT SAN ANTONIO CLOUDY    73  73  99 S12       29.73S
6HR MIN TEMP:  69; 6HR MAX TEMP:  85; 6HR PCP: TRACE;

SAN ANTONIO    CLOUDY    75  71  87 S8        29.74F
6HR MIN TEMP:  74; 6HR MAX TEMP:  87;

STINSON FIELD  PTCLDY    73  70  90 S8        29.72S
6HR MIN TEMP:  70; 6HR MAX TEMP:  86;

*PLEASANTON    MOCLDY    72  70  93 SE5       29.74S FOG
6HR MIN TEMP:  72; 6HR MAX TEMP:  87;

*LA GRANGE     PTCLDY    71  70  96 SE5       29.71F
6HR MIN TEMP:  71; 6HR MAX TEMP:  85;

*GIDDINGS      LGT RAIN  71  69  94 S3        29.76F
6HR MIN TEMP:  71; 6HR MAX TEMP:  84;

*GONZALES      PTCLDY   N/A N/A N/A S6        29.72S
$$

TXZ163>164-176>182-195>201-210>213-226-227-235-260700-
SOUTHEAST TEXAS

CITY           SKY/WX    TMP DP  RH WIND       PRES   REMARKS
COLLEGE STN    PTCLDY    72  70  93 S9        29.72F
6HR MIN TEMP:  72; 6HR MAX TEMP:  86;

*BRYAN         PTCLDY    72  71  95 S7        29.74S
6HR MIN TEMP:  72; 6HR MAX TEMP:  84;

*CALDWELL      PTCLDY    70  70 100 SE5       29.76S
*CROCKETT      NOT AVBL
*BRENHAM       PTCLDY    73  71  94 S6        29.74F
6HR MIN TEMP:  73; 6HR MAX TEMP:  86; 6HR PCP:  0.01;

HUNTSVILLE     CLEAR     73  69  87 S9        29.73S
6HR MIN TEMP:  73; 6HR MAX TEMP:  84;

CONROE         MOCLDY    70  68  93 S3        29.74F
6HR MIN TEMP:  68; 6HR MAX TEMP:  84;

HOUSTON BUSH   MOCLDY    70  67  90 S6        29.74S
6HR MIN TEMP:  70; 6HR MAX TEMP:  83;

HOUSTON HOBBY  MOCLDY    69  68  96 CALM      29.74S
6HR MIN TEMP:  68; 6HR MAX TEMP:  79;

*HOUSTON SW AP MOCLDY    69  69 100 CALM      29.75F
6HR MIN TEMP:  69; 6HR MAX TEMP:  82;

PEARLAND       PTCLDY    69  67  93 CALM      29.75F
6HR MIN TEMP:  68; 6HR MAX TEMP:  78;

HOUSTON HOOKS  CLEAR     70  67  90 SW5       29.74S
6HR MIN TEMP:  70; 6HR MAX TEMP:  83;

ELLINGTON FLD  MOCLDY    70  68  94 CALM      29.76R
SUGAR LAND     CLEAR     68  66  93 S3        29.74F
6HR MIN TEMP:  68; 6HR MAX TEMP:  82;

*HOUSTON EXEC  CLEAR     66  66 100 S3        29.75F FOG
*CLEVELAND MUN CLEAR     65  65  98 CALM      29.75F FOG
6HR MIN TEMP:  65; 6HR MAX TEMP:  82;

*WHARTON       MOCLDY    68  67  98 CALM      29.75S FOG
6HR MIN TEMP:  66; 6HR MAX TEMP:  79;

*COLUMBUS      FAIR      69  68  98 CALM      29.73F FOG
6HR MIN TEMP:  69; 6HR MAX TEMP:  82;

$$

TXZ214>216-236>238-260700-
THE UPPER TEXAS COAST

CITY           SKY/WX    TMP DP  RH WIND       PRES   REMARKS
*ORANGE        FOG       67  65  92 CALM      29.77S VSB 1
6HR MIN TEMP:  67; 6HR MAX TEMP:  77;

PORT ARTHUR    FOG       68  67  96 NW3       29.74S VSB 1/2
6HR MIN TEMP:  69; 6HR MAX TEMP:  78;

GALVESTON      CLOUDY    73  72  96 CALM      29.76S
6HR MIN TEMP:  72; 6HR MAX TEMP:  75;

ANGLETON       CLOUDY    71  71 100 S6        29.74F FOG
6HR MIN TEMP:  66; 6HR MAX TEMP:  75;

*BAY CITY      CLOUDY    73  73 100 S3        29.74F FOG
PALACIOS       CLOUDY    75  73  93 S7        29.72F
6HR MIN TEMP:  71; 6HR MAX TEMP:  76;

$$

TXZ229>234-239>247-260700-
TEXAS COASTAL BEND AND RIO GRANDE PLAINS

CITY           SKY/WX    TMP DP  RH WIND       PRES   REMARKS
VICTORIA       FOG       72  72 100 S7        29.73F VSB 3/4
6HR MIN TEMP:  69; 6HR MAX TEMP:  81;

*BEEVILLE      CLOUDY    73  73 100 S5        29.74S FOG
6HR MIN TEMP:  69; 6HR MAX TEMP:  82;

ROCKPORT       FOG       75  73  93 S9        29.72F VSB 3/4
6HR MIN TEMP:  74; 6HR MAX TEMP:  75;

*PORT ARANSAS  FOG       74  74 100 S5        29.73S VSB 1/4
6HR MIN TEMP:  73; 6HR MAX TEMP:  76;

*PORT LAVACA   CLOUDY    73  73 100 SE6       29.73F FOG
*INGLESIDE     FOG       76  75  95 S6        29.73S VSB 1/2
CORPUS CHRISTI FOG       75  74  96 S7        29.74R VSB 3/4
6HR MIN TEMP:  75; 6HR MAX TEMP:  77;

CORPUS NAS     CLOUDY    75  75 100 S12       29.73S FOG
6HR MIN TEMP:  74; 6HR MAX TEMP:  76;

*ROBSTOWN      CLOUDY    76  76 100 MISG      29.74S FOG
6HR MIN TEMP:  76; 6HR MAX TEMP:  79;

ALICE          CLOUDY    77  72  84 S3        29.73S
6HR MIN TEMP:  77; 6HR MAX TEMP:  82;

KINGSVILLE NAS CLOUDY    77  77 100 S3        29.73S FOG
6HR MIN TEMP:  77; 6HR MAX TEMP:  80;

COTULLA        PTCLDY    75  71  87 SE7       29.72S FOG
6HR MIN TEMP:  75; 6HR MAX TEMP:  90;

*FAITH RANCH   CLEAR     75  70  83 SE8       29.71S
LAREDO         PTCLDY    76  74  93 SE12      29.72F
6HR MIN TEMP:  77; 6HR MAX TEMP:  91;

$$

TXZ248>255-260700-
DEEP SOUTH TEXAS

CITY           SKY/WX    TMP DP  RH WIND       PRES   REMARKS
BROWNSVILLE    CLOUDY    79  77  94 SE6       29.72S FOG
6HR MIN TEMP:  78; 6HR MAX TEMP:  84;

PORT ISABEL    CLOUDY    79  76  90 SE6       29.71F FOG
6HR MIN TEMP:  78; 6HR MAX TEMP:  82;

*SOUTH PADRE     N/A    N/A N/A N/A MISG        N/A
HARLINGEN      FOG       77  76  96 E5        29.71F VSB 1


USA.gov is the U.S. government's official web portal to all federal, state and local government web resources and services.